TimeCST,TemperatureF,Dew PointF,Humidity,Sea Level PressureIn,VisibilityMPH,Wind Direction,Wind SpeedMPH,Gust SpeedMPH,PrecipitationIn,Events,Conditions,WindDirDegrees,DateUTC
12:15 AM,38.1,36.7,95,30.41,7.0,Calm,Calm,-,N/A,,Clear,0,2012-12-22 06:15:00
12:35 AM,37.6,36.3,95,30.40,7.0,Calm,Calm,-,N/A,,Clear,0,2012-12-22 06:35:00
12:55 AM,36.9,36.0,97,30.39,7.0,Calm,Calm,-,N/A,,Clear,0,2012-12-22 06:55:00
1:15 AM,36.1,35.4,97,30.39,5.0,Calm,Calm,-,N/A,,Clear,0,2012-12-22 07:15:00
1:35 AM,35.6,35.1,98,30.39,4.0,Calm,Calm,-,N/A,,Clear,0,2012-12-22 07:35:00
1:55 AM,35.1,34.7,99,30.40,7.0,Calm,Calm,-,N/A,,Clear,0,2012-12-22 07:55:00
2:15 AM,34.9,34.5,99,30.39,5.0,Calm,Calm,-,N/A,,Clear,0,2012-12-22 08:15:00
2:35 AM,34.3,34.2,99,30.39,5.0,Calm,Calm,-,N/A,,Clear,0,2012-12-22 08:35:00
2:55 AM,33.8,33.6,99,30.39,5.0,Calm,Calm,-,N/A,,Clear,0,2012-12-22 08:55:00
3:15 AM,33.3,33.1,99,30.39,3.0,Calm,Calm,-,N/A,,Clear,0,2012-12-22 09:15:00
3:35 AM,32.7,32.5,99,30.39,4.0,Calm,Calm,-,N/A,,Clear,0,2012-12-22 09:35:00
3:55 AM,32.5,32.4,99,30.39,2.0,Calm,Calm,-,N/A,,Clear,0,2012-12-22 09:55:00
4:15 AM,31.8,31.8,100,30.39,4.0,Calm,Calm,-,N/A,,Clear,0,2012-12-22 10:15:00
4:35 AM,31.8,31.8,100,30.39,4.0,Calm,Calm,-,N/A,,Clear,0,2012-12-22 10:35:00
4:55 AM,31.6,31.6,100,30.39,7.0,Calm,Calm,-,N/A,,Clear,0,2012-12-22 10:55:00
5:15 AM,31.3,31.3,100,30.38,5.0,Calm,Calm,-,N/A,,Clear,0,2012-12-22 11:15:00
5:35 AM,31.3,31.3,100,30.38,7.0,Calm,Calm,-,N/A,,Clear,0,2012-12-22 11:35:00
6:15 AM,30.7,30.7,100,30.38,7.0,Calm,Calm,-,N/A,,Clear,0,2012-12-22 12:15:00
6:35 AM,30.7,30.7,100,30.38,7.0,Calm,Calm,-,N/A,,Clear,0,2012-12-22 12:35:00
6:55 AM,30.4,30.4,100,30.38,10.0,Calm,Calm,-,N/A,,Clear,0,2012-12-22 12:55:00
7:15 AM,30.2,30.2,100,30.39,10.0,Calm,Calm,-,N/A,,Clear,0,2012-12-22 13:15:00
7:35 AM,30.6,30.6,100,30.39,10.0,Calm,Calm,-,N/A,,Clear,0,2012-12-22 13:35:00
7:55 AM,31.3,31.3,100,30.40,10.0,Calm,Calm,-,N/A,,Clear,0,2012-12-22 13:55:00
8:15 AM,32.5,32.4,99,30.40,10.0,Calm,Calm,-,N/A,,Clear,0,2012-12-22 14:15:00
8:35 AM,35.2,35.1,99,30.40,10.0,Calm,Calm,-,N/A,,Clear,0,2012-12-22 14:35:00
8:55 AM,38.8,36.9,93,30.41,10.0,Calm,Calm,-,N/A,,Clear,0,2012-12-22 14:55:00
9:15 AM,43.0,37.9,82,30.41,10.0,Calm,Calm,-,N/A,,Clear,0,2012-12-22 15:15:00
9:35 AM,46.8,37.0,69,30.41,10.0,Calm,Calm,-,N/A,,Clear,0,2012-12-22 15:35:00
9:55 AM,49.6,36.1,60,30.41,10.0,Calm,Calm,-,N/A,,Clear,0,2012-12-22 15:55:00
10:15 AM,53.1,32.4,45,30.41,10.0,Calm,Calm,-,N/A,,Clear,0,2012-12-22 16:15:00
10:35 AM,56.3,30.9,38,30.40,10.0,South,3.5,-,N/A,,Clear,190,2012-12-22 16:35:00
10:55 AM,59.2,27.9,30,30.39,10.0,SSW,4.6,-,N/A,,Clear,210,2012-12-22 16:55:00
11:15 AM,61.5,25.2,25,30.38,10.0,SSW,8.1,-,N/A,,Clear,210,2012-12-22 17:15:00
11:35 AM,63.0,24.3,23,30.37,10.0,South,6.9,-,N/A,,Clear,190,2012-12-22 17:35:00
11:55 AM,64.2,24.4,22,30.36,10.0,SW,8.1,-,N/A,,Clear,220,2012-12-22 17:55:00
12:15 PM,64.6,24.4,22,30.35,10.0,SSW,10.4,17.3,N/A,,Clear,210,2012-12-22 18:15:00
12:35 PM,65.5,24.4,21,30.34,10.0,SSW,11.5,20.7,N/A,,Clear,200,2012-12-22 18:35:00
12:55 PM,65.8,24.3,21,30.32,10.0,South,12.7,-,N/A,,Clear,190,2012-12-22 18:55:00
1:15 PM,66.0,25.0,21,30.31,10.0,South,10.4,17.3,N/A,,Clear,190,2012-12-22 19:15:00
1:35 PM,66.6,26.4,22,30.30,10.0,South,12.7,18.4,N/A,,Clear,190,2012-12-22 19:35:00
1:55 PM,67.1,27.3,22,30.29,10.0,South,9.2,16.1,N/A,,Clear,190,2012-12-22 19:55:00
2:15 PM,67.3,28.2,23,30.28,10.0,South,10.4,-,N/A,,Clear,180,2012-12-22 20:15:00
2:35 PM,67.3,30.0,25,30.27,10.0,SSW,11.5,-,N/A,,Clear,210,2012-12-22 20:35:00
2:55 PM,67.3,31.5,26,30.27,10.0,SSW,12.7,16.1,N/A,,Clear,200,2012-12-22 20:55:00
3:15 PM,66.9,32.0,27,30.27,10.0,South,10.4,17.3,N/A,,Clear,190,2012-12-22 21:15:00
3:35 PM,66.6,33.6,29,30.26,10.0,South,8.1,-,N/A,,Clear,190,2012-12-22 21:35:00
3:55 PM,66.4,35.1,31,30.25,10.0,South,13.8,-,N/A,,Clear,190,2012-12-22 21:55:00
4:15 PM,66.2,36.3,33,30.25,10.0,South,12.7,-,N/A,,Clear,180,2012-12-22 22:15:00
4:35 PM,65.3,38.8,38,30.25,10.0,South,9.2,-,N/A,,Clear,170,2012-12-22 22:35:00
4:55 PM,63.5,41.5,45,30.26,10.0,SSE,6.9,-,N/A,,Clear,160,2012-12-22 22:55:00
5:15 PM,62.2,43.0,49,30.25,10.0,SSE,5.8,-,N/A,,Clear,160,2012-12-22 23:15:00
5:35 PM,61.2,43.5,52,30.25,10.0,SSE,4.6,-,N/A,,Clear,150,2012-12-22 23:35:00
5:55 PM,60.3,44.2,55,30.26,10.0,SSE,4.6,-,N/A,,Clear,160,2012-12-22 23:55:00
6:15 PM,59.5,45.0,59,30.26,10.0,SSE,4.6,-,N/A,,Scattered Clouds,150,2012-12-23 00:15:00
6:35 PM,59.2,45.3,60,30.26,10.0,SE,4.6,-,N/A,,Mostly Cloudy,140,2012-12-23 00:35:00
6:55 PM,59.0,45.5,61,30.25,10.0,SSE,4.6,-,N/A,,Mostly Cloudy,160,2012-12-23 00:55:00
7:15 PM,58.5,45.5,62,30.25,10.0,SE,3.5,-,N/A,,Scattered Clouds,140,2012-12-23 01:15:00
7:35 PM,58.1,45.7,63,30.24,10.0,SSE,4.6,-,N/A,,Clear,150,2012-12-23 01:35:00
7:55 PM,58.1,45.7,63,30.24,10.0,SE,6.9,-,N/A,,Clear,140,2012-12-23 01:55:00
8:15 PM,57.7,45.7,64,30.23,10.0,SE,4.6,-,N/A,,Clear,130,2012-12-23 02:15:00
8:35 PM,57.2,45.5,65,30.23,10.0,SE,4.6,-,N/A,,Clear,140,2012-12-23 02:35:00
8:55 PM,57.2,45.9,66,30.22,10.0,SE,5.8,-,N/A,,Clear,130,2012-12-23 02:55:00
9:15 PM,57.0,46.0,67,30.21,10.0,SE,4.6,-,N/A,,Clear,140,2012-12-23 03:15:00
9:35 PM,57.0,46.4,68,30.21,10.0,SSE,5.8,-,N/A,,Clear,150,2012-12-23 03:35:00
9:55 PM,57.4,46.9,68,30.20,10.0,SE,4.6,-,N/A,,Clear,140,2012-12-23 03:55:00
10:15 PM,57.6,47.5,69,30.20,10.0,SE,4.6,-,N/A,,Mostly Cloudy,130,2012-12-23 04:15:00
10:35 PM,57.4,47.5,70,30.19,10.0,SE,3.5,-,N/A,,Overcast,140,2012-12-23 04:35:00
10:55 PM,57.4,48.0,71,30.19,10.0,SE,3.5,-,N/A,,Overcast,140,2012-12-23 04:55:00
11:15 PM,57.4,48.4,72,30.18,10.0,SSE,4.6,-,N/A,,Overcast,160,2012-12-23 05:15:00
11:35 PM,58.1,49.1,72,30.19,10.0,SSE,4.6,-,N/A,,Overcast,160,2012-12-23 05:35:00
11:55 PM,58.6,49.8,72,30.19,10.0,Calm,Calm,-,N/A,,Overcast,0,2012-12-23 05:55:00